#timestamp,LO_Frequency,Hit,StdDev 
1541401215.2,286046998.3,N
1541401235.1,286046998.8,N
1541401236.0,286046998.8,N
1541401255.8,286046999.4,N
1541401275.7,286046998.1,N
1541401295.5,286047001.2,N
1541401315.3,286046998.9,N
1541401335.2,286046996.6,Y
1541401355.0,286046998.2,P
1541401355.9,286046998.2,P
1541401375.8,286046998.8,P
1541401395.6,286046998.2,Y
1541401415.4,286047002.7,P
1541401435.3,286047000.1,N
1541401455.1,286047000.2,N
1541401475.8,286047000.6,N
1541401495.7,286047000.4,N
1541401515.5,286046999.8,N
1541401535.4,286046998.7,N
1541401555.2,286046996.9,N
1541401575.0,286046996.5,N
1541401575.9,286046996.5,N
1541401595.8,286046996.6,N
1541401615.6,286047001.0,N
1541401635.5,286046996.6,N
1541401655.3,286046996.8,N
1541401675.1,286046999.4,N
1541401695.9,286046997.9,N
1541401715.7,286046999.4,N
1541401735.5,286046998.9,N
1541401755.4,286046997.5,N
1541401775.2,286046996.8,N
1541401795.1,286046999.6,N
1541401796.0,286046999.6,N
1541401815.8,286046997.9,N
1541401835.6,286046995.4,N
1541401855.5,286046995.5,N
1541401875.3,286046995.7,N
1541401895.1,286046996.0,N
1541401915.9,286046996.2,N
1541401935.7,286046995.9,N
1541401955.6,286046997.2,N
1541401975.4,286046997.2,N
1541401995.2,286046997.3,N
1541402015.1,286046994.9,Y
1541402016.0,286046994.9,P
1541402035.8,286046997.6,N
1541402055.7,286046995.9,P
1541402075.5,286046995.4,Y
1541402095.3,286047000.5,P
1541402115.2,286047000.7,N
1541402135.0,286047000.2,N
1541402135.9,286047000.2,N
1541402155.7,286046999.8,N
1541402175.6,286047001.9,N
1541402195.4,286047001.6,N
1541402215.3,286047002.4,N
1541402235.1,286047000.2,N
1541402236.0,286047000.2,N
1541402255.8,286046999.7,N
1541402275.7,286047001.0,N
1541402295.5,286047000.6,N
1541402315.4,286047001.2,N
1541402335.2,286046998.7,N
1541402355.0,286046998.9,N
1541402355.9,286046998.9,N
1541402375.8,286046999.0,N
1541402395.6,286046999.6,N
1541402415.4,286047000.6,N
1541402435.3,286047000.9,N
1541402455.1,286047000.4,N
1541402475.9,286046998.4,N
1541402495.7,286046999.4,N
1541402515.5,286046996.9,N
1541402535.4,286046999.0,N
1541402555.2,286047001.1,N
1541402575.0,286047000.7,N
1541402576.0,286047000.7,N
1541402595.8,286047000.7,N
1541402615.6,286047001.2,N
1541402635.5,286046998.3,N
1541402655.3,286046998.3,N
1541402675.1,286047000.1,N
1541402695.9,286047000.7,N
1541402715.7,286046998.6,N
1541402735.6,286046999.1,N
1541402755.4,286046997.6,N
1541402775.2,286046995.0,Y
1541402795.1,286046996.5,P
1541402796.0,286046996.5,N
1541402815.8,286046999.2,N
1541402835.7,286046998.8,N
1541402855.5,286046999.3,N
1541402875.3,286046997.3,N
1541402895.2,286046997.4,N
1541402915.0,286046997.7,N
1541402915.9,286046997.7,N
1541402935.7,286046997.4,N
1541402955.6,286046997.6,N
1541402975.4,286046995.6,Y
1541402995.3,286046996.5,P
1541403015.1,286046998.9,N
1541403035.8,286046999.0,N
1541403055.7,286046998.8,N
1541403075.5,286046999.7,N
1541403095.4,286047001.1,N
1541403115.2,286046998.7,N
1541403135.0,286046997.4,N
1541403135.9,286046997.4,N
1541403155.8,286046996.9,N
1541403175.6,286046999.5,N
1541403195.4,286047000.7,N
1541403215.3,286046998.2,N
1541403235.1,286046997.0,N
1541403255.9,286046997.7,N
1541403275.7,286046999.3,N
1541403295.5,286046998.7,N
1541403315.4,286046999.1,N
1541403335.2,286046997.7,N
1541403355.1,286046999.2,N
1541403356.0,286046999.2,N
1541403375.8,286046997.5,N
1541403395.6,286046996.7,N
1541403415.5,286046999.3,N
1541403435.3,286046997.0,N
1541403455.1,286046996.7,N
1541403475.9,286046995.8,Y
1541403495.7,286046996.9,P
1541403515.6,286046998.8,N
1541403535.4,286046999.1,N
1541403555.2,286046998.3,N
1541403575.1,286047002.3,Y
1541403576.0,286047002.3,P
1541403595.8,286047001.3,N
1541403615.7,286047003.5,N
1541403635.5,286047004.5,N
1541403655.3,286047003.2,N
1541403675.2,286047002.1,N
1541403695.0,286046999.9,N
1541403695.9,286046999.9,N
1541403715.7,286047001.4,N
1541403735.6,286047001.9,N
1541403755.4,286047002.3,N
1541403775.3,286047002.6,N
1541403795.1,286046998.1,N
1541403815.8,286046998.4,N
1541403835.7,286046999.7,N
1541403855.5,286047001.4,N
1541403875.4,286047002.5,N
1541403895.2,286047004.4,N
1541403915.0,286047003.0,N
1541403915.9,286047003.0,N
1541403935.8,286047002.3,N
1541403955.6,286047002.1,N
1541403975.4,286047001.3,N
1541403995.3,286047001.9,N
1541404015.1,286047001.4,N
1541404035.9,286047003.2,N
1541404055.7,286047004.0,N
1541404075.5,286047004.3,N
1541404095.4,286047003.2,N
1541404115.2,286047003.6,N
1541404135.0,286047003.5,N
1541404136.0,286047011.9,Y
1541404155.8,286047002.4,P
1541404175.6,286047001.9,P
1541404195.5,286047001.6,P
1541404215.3,286047002.3,Y
1541404235.1,286046998.1,P
1541404255.9,286046999.2,N
1541404275.7,286046999.1,N
1541404295.6,286046999.5,N
1541404315.4,286047000.8,N
1541404335.2,286047000.8,N
1541404355.1,286046998.3,N
1541404356.0,286046998.3,N
1541404375.8,286046999.3,N
1541404395.7,286046998.4,N
1541404415.5,286047000.3,N
1541404435.3,286047000.5,N
1541404455.2,286046998.1,N
1541404475.0,286047000.8,N
1541404475.9,286047000.8,N
1541404495.7,286047001.1,N
1541404515.6,286047000.7,N
1541404535.4,286046998.7,N
1541404555.3,286046999.1,N
1541404575.1,286047000.6,N
1541404576.0,286047000.6,N
1541404595.8,286046998.1,N
1541404615.7,286047000.4,N
1541404635.5,286047000.5,N
1541404655.3,286047000.9,N
1541404675.2,286047000.6,N
1541404695.0,286047000.2,N
1541404695.9,286047000.2,N
1541404715.8,286047001.6,N
1541404735.6,286047001.5,N
1541404755.4,286047002.0,N
1541404775.3,286047003.8,Y
1541404795.1,286047003.8,P
